This demonstration page uses our WeatherBlox Daily Observations layout. Learn more.

Left ArrowRight Arrow

41.12389, -100.76542

Hourly Observations for May 27, 2022

Temp ( °F °C ) Dew Point ( °F °C ) Humidity (%) Winds ( mph kmh ) Pressure ( in mb ) Visibility ( mi km ) Precip ( " mm )
12:53 am 00:53 Clear 51 10.6 45 7.2 80 80 Calm 29.94 1014 10 16 0.00 0.00
1:53 am 01:53 Clear 50 10 45 7.2 83 83 Calm 29.94 1014 10 16 0.00 0.00
2:53 am 02:53 Clear 49 9.4 44 6.7 83 83 Calm 29.94 1014 10 16 0.00 0.00
3:53 am 03:53 Clear 47 8.3 42 5.6 83 83 Calm 29.93 1014 10 16 0.00 0.00
4:53 am 04:53 Clear 45 7.2 41 5 86 86 Calm 29.93 1013 10 16 0.00 0.00
5:53 am 05:53 Clear 44 6.7 41 5 89 89 E 3 6 29.93 1013 10 16 0.00 0.00
6:53 am 06:53 Sunny 46 7.8 43 6.1 89 89 SE 5 7 29.92 1013 10 16 0.00 0.00
7:53 am 07:53 Sunny 54 12.2 48 8.9 80 80 ESE 5 7 29.92 1013 10 16 0.00 0.00
8:53 am 08:53 Sunny 62 16.7 50 10 65 65 E 8 13 29.89 1012 10 16 0.00 0.00
9:53 am 09:53 Sunny 69 20.6 52 11.1 55 55 VRB 5 7 29.88 1012 10 16 0.00 0.00
10:53 am 10:53 Sunny 75 23.9 54 12.2 48 48 ESE 5 7 29.87 1012 10 16 0.00 0.00
11:53 am 11:53 Sunny 82 27.8 56 13.3 41 41 ESE 7 11 29.84 1011 10 16 0.00 0.00
12:53 pm 12:53 Sunny 87 30.6 48 8.9 26 26 SE 6 9 29.82 1010 10 16 0.00 0.00
1:53 pm 13:53 Sunny 90 32.2 46 7.8 22 22 SSE 14 22 29.78 1009 10 16 0.00 0.00
2:53 pm 14:53 Sunny 92 33.3 45 7.2 20 20 S 15 24 29.75 1007 10 16 0.00 0.00
3:53 pm 15:53 Sunny 93 33.9 46 7.8 20 20 S 14 22 29.72 1006 10 16 0.00 0.00
4:53 pm 16:53 Sunny 93 33.9 43 6.1 18 18 S 12 19 29.69 1006 10 16 0.00 0.00
5:53 pm 17:53 Sunny 91 32.8 46 7.8 21 21 SSE 16 26 29.67 1005 10 16 0.00 0.00
6:53 pm 18:53 Sunny 89 31.7 42 5.6 19 19 SSE 13 20 29.64 1004 10 16 0.00 0.00
7:53 pm 19:53 Sunny 86 30 41 5 20 20 SSE 10 17 29.63 1003 10 16 0.00 0.00
8:53 pm 20:53 Mostly Cloudy with Light Rain 83 28.3 44 6.7 25 25 NW 18 30 29.71 1006 10 16 0.00 0.00
9:53 pm 21:53 Mostly Cloudy 81 27.2 44 6.7 27 27 W 10 17 29.72 1007 10 16 0.00 0.00
10:53 pm 22:53 Mostly Clear 83 28.3 42 5.6 24 24 S 13 20 29.62 1003 10 16 0.00 0.00
11:53 pm 23:53 Clear 75 23.9 46 7.8 36 36 SSW 5 7 29.63 1004 10 16 0.00 0.00

Powered by AerisWeather